Location: Clyde
(45.1830°S, 169.3170°E)
Time: 22:25:35
(UTC+13:00)

Spot 2 Rocket - Pass Details

Date: 24 January 2019
Orbit: 758 x 772 km, 98.6° (Epoch: 20 February)

Event Time Altitude Azimuth Distance (km) Brightness Sun altitude
Rises 23:13:20 0° 166° (SSE) 3,285 7.3 -15.9°
Reaches altitude 10° 23:15:40 10° 165° (SSE) 2,349 6.5 -16.1°
Maximum altitude 23:20:53 85° 76° (ENE) 788 3.5 -16.7°
Enters shadow 23:25:11 15° 347° (NNW) 1,994 5.3 -17.2°
